Terug naar catalogus

STARLINK-5232

ActiefCommunicatieVLEO
NORAD 55675·PAYLOAD·🇺🇸 United States

Gelanceerd Feb 17, 2023 vanaf Vandenberg Space Force Base

Loading…

Volgende Passages (komende 24 uur)

TLE

VersSource: CelesTrak SupGP

Epoch: Sep 15, 2026, 01:54 UTC

1 55675C 23021AZ  26258.07965278 -.00048840  00000+0 -40938-2 0  2582
2 55675  70.0019  46.7448 0002851 272.0804 248.0518 14.98347965    14

Volg STARLINK-5232 in realtime met AllMySat

Download on the App Store